Regional Weather Roundup
Issued by NWS Bismarck, ND

Home | Current Version | Previous Version | Text Only | Print | Product List | Glossary On
Versions: 1 2 3 4 5 6 7 8 9 10 11 12 13 14 15 16 17 18 19 20 21 22 23 24 25 26 27 28 29 30 31 32 33 34 35 36 37 38 39 40 41 42 43 44 45 46 47 48 49 50
000
ASUS43 KBIS 270002
RWRBIS

NWR BROADCAST TEXT
NATIONAL WEATHER SERVICE BISMARCK ND
700 PM CDT MON SEP 26 2016

NOTE: "FAIR" INDICATES FEW OR NO CLOUDS BELOW 12,000 FEET WITH NO
SIGNIFICANT WEATHER AND/OR OBSTRUCTIONS TO VISIBILITY.


CITY           SKY/WX    TMP DP  RH WIND       PRES   REMARKS
WILLISTON      CLOUDY    68  40  35 NW5       30.10F
MINOT          CLEAR     62  36  37 NW14      30.06F
MINOT AFB      CLEAR     62  37  38 NW14      30.05S
BISMARCK       CLEAR     65  35  33 NW13G23   30.09F
DICKINSON      CLOUDY    62  39  42 NW6       30.14S
GARRISON         N/A     63  36  36 NW10      30.08S
HETTINGER ARPT CLEAR     65  38  36 NW15      30.17F
JAMESTOWN      CLEAR     60  35  39 NW16      30.00F
CARRINGTON     FAIR      61  34  36 NW16G23   30.03F
HAZEN          FAIR      63  36  36 NW8       30.11F
RUGBY          FAIR      59  32  36 NW13      30.03S
STANLEY        FAIR      63  36  36 NW8       30.11F
$$

CITY           SKY/WX    TMP DP  RH WIND       PRES   REMARKS
GRAND FORKS    CLEAR     60  40  47 NW12      29.92S
GRAND FORKS AF CLEAR     60  33  35 N12       29.93S
DEVILS LAKE    NOT AVBL
FARGO          CLEAR     63  26  24 NW16G28   29.93S
CANDO          FAIR      59  28  31 NW16G23   30.02R
CAVALIER       FAIR      59  45  58 N9        29.93R
GRAFTON        FAIR      57  45  62 NW8       29.94S
GWINNER        FAIR      64  32  29 NW16      29.99F
LANGDON        FAIR      57  34  41 NW14      29.96S
ROLLA          FAIR      57  30  35 NW14G24   30.01S
WALHALLA       FAIR      57  55  94 N10       29.94R
$$

CITY           SKY/WX    TMP DP  RH WIND       PRES   REMARKS
ABERDEEN       CLEAR     65  32  29 NW16      30.04S
MOBRIDGE       CLEAR     68  33  27 NW14      30.08R
BUFFALO          N/A     67  41  38 NW16      30.12S
RAPID CITY     CLEAR     68  40  35 N18       30.19F
GLASGOW        PTCLDY    69  44  40 SW3       30.11F
SIDNEY         CLEAR     67  40  37 W7        30.11F
WOLF POINT     CLEAR     67  46  47 SW7       30.11F
GLENDIVE       CLEAR     66  45  46 W8        30.15F
MILES CITY     CLOUDY    70  46  42 W5        30.16F
BAKER          CLEAR     65  39  38 NW9       30.19F
$$

CITY           SKY/WX    TMP DP  RH WIND       PRES   REMARKS
BILLINGS       CLOUDY    72  45  37 SW10      30.19F
GREAT FALLS    SUNNY     74  41  30 SW15      30.13F
$$





USA.gov is the U.S. government's official web portal to all federal, state and local government web resources and services.